THORAD AGENA D DEB, 14478

Orbit data source: Space-Track

THORAD AGENA D DEB, 14478 is space debris in SSO originally from a launch on Wed, 08 Apr 1970 UTC launched from the Air Force Western Test Range (AFWTR). Debris objects in space refer to the collection of defunct objects orbiting the Earth. Examples of debris include non-operational satellites, rocket bodies, and fragments generated from explosions, collisions, or faulty payload assembly.

Loading next visibility...
Identifier
14478, 1970-025NW
Orbit
SSO
Country
Flag of USUS
Related business
Manufacturer
Unknown
Mission
Spacecraft
Bus & Motor
Unknown
Mass
Unknown
Launch date (UTC)
1970-04-08 (56 years ago)
Launch vehicle
Unknown
Launch site
Air Force Western Test Range (AFWTR)
Object type
Payload
Rocket body
Debris
Shape & HBR
Unknown shape, 0.1 m
Radar Cross Section
Small (<0.1 m²)

Expand to show TLE details & history
Last TLE update: 23 hours ago

TLE from 23 hours ago
0 THORAD AGENA D DEB
1 14478U 70025NW  26033.46036041  .00004468  00000-0  14780-1 0  9999
2 14478 100.8874 210.9460 0489074 323.3416  33.5114 12.66880457592044
Epoch: 2026-02-02T11:02Z
TLE epoch observation values (Epoch: 2026-02-02T11:02:55.139Z)
Latitude
-0.00011°
Longitude
-87.43905°
Altitude
1,086.337 km
Speed
7.454 km/s
True Right ascension
14h 03m 47s
True Declination
0° 00' 00"
Sunlit
Object was in daylight at epoch
Visualization orbit readout
Latitude
Unknown
Longitude
Unknown
Altitude
Unknown
Speed
Unknown
Apparent Right ascension
Unknown
Apparent Declination
Unknown
Sunlit
N/A
Visualization observer readout
Local Sidereal Time
11:43:10
Azimuth
Unknown
Elevation
Unknown
Doppler factor
Unknown
Orbital elements
Apogee altitude
1,772.164 km
Perigee altitude
1,012.116 km
Semi-major axis
7,770.277 km
Eccentricity
0.04891
Inclination
100.8874°
RAAN
210.946°
Arg. of periapsis
323.3416°
True anomaly
36.76963°
Mean anomaly
33.5114°
Eccentric anomaly
35.12362°
Mean motion
3.16875 °/min
Orbital period
113.61 mins
BSTAR
0.01478
Loading maneuver chart data...
Computing Atmospheric mass density...

Documentation

Showing up to 5 results
|